Location: Newark
(34.1333°N, 7.9667°W)
Time: 21:11:55
(UTC+00:00)

Explorer 11/Cluster Stage 4 - Visible Passes

Search period start: 13 June 2021 00:00
Search period end: 23 June 2021 00:00
Orbit: 467 x 1257 km, 28.8° (Epoch: 12 June)

Date Brightness Start Highest point End Pass type
(mag) Time Alt. Az. Time Alt. Az. Time Alt. Az.
14 Jun 9.3 04:02:35 10° S 04:05:33 12° SSE 04:08:23 10° SE visible
15 Jun 9.1 03:50:07 10° S 03:54:18 15° SSE 03:58:18 10° ESE visible
16 Jun 9.0 03:39:27 14° S 03:43:01 18° SSE 03:47:51 10° ESE visible
17 Jun 8.8 03:28:44 17° S 03:31:44 21° SSE 03:37:12 10° ESE visible
18 Jun 8.7 03:17:59 21° S 03:20:25 24° SSE 03:26:25 10° ESE visible
19 Jun 8.5 03:07:11 25° S 03:09:05 28° SSE 03:15:31 10° ESE visible
19 Jun 7.9 04:50:08 10° WSW 04:57:55 49° SSE 05:04:52 10° E visible
20 Jun 8.3 02:56:22 29° S 02:57:45 31° SSE 03:04:32 10° E visible
20 Jun 7.8 04:38:44 10° WSW 04:46:38 52° S 04:53:49 10° E visible
21 Jun 8.2 02:45:33 33° S 02:46:24 34° SSE 02:53:29 10° E visible
21 Jun 7.8 04:27:37 11° WSW 04:35:21 54° S 04:42:44 10° E visible
22 Jun 8.1 02:34:41 37° SSE 02:35:03 37° SSE 02:42:22 10° E visible
22 Jun 7.7 04:16:45 13° WSW 04:24:03 57° S 04:31:38 10° E visible
